Weather History for KMRC - June, 2013

Change the Weather History Date:

Wednesday, June 5, 2013

  Actual Average (KBNA) Record (KBNA)
Temperature  
Mean Temperature 78 °F 73 °F  
Max Temperature 82 °F 84 °F 97 °F (2011)
Min Temperature 73 °F 63 °F 46 °F (1946)
Degree Days  
Heating Degree Days 0    
Month to date heating degree days  
Since 1 June heating degree days  
Since 1 July heating degree days  
Cooling Degree Days 12    
Month to date cooling degree days  
Year to date cooling degree days  
Since 1 June cooling degree days  
Growing Degree Days 28 (Base 50)    
Moisture  
Dew Point 78 °F    
Average Humidity 97    
Maximum Humidity 100    
Minimum Humidity 84    
Precipitation  
Precipitation 0.00 in 0.15 in 2.65 in (1998)
Month to date precipitation 0.76  
Year to date precipitation 22.06  
Snow  
Snow 0.00 in 0.00 in 0.00 in (2002)
Month to date snowfall 0.0  
Since 1 June snowfall 0.0  
Since 1 July snowfall 6.3  
Snow Depth -    
Sea Level Pressure  
Sea Level Pressure 29.93 in    
Wind  
Wind Speed 2 mph (SSE)    
Max Wind Speed 12 mph    
Max Gust Speed -    
Visibility 9 miles    
Events      
T = Trace of Precipitation, MM = Missing Value Source: NWS Daily Summary

Daily Weather History Graph

Daily Weather History Graph

Search for Another Location

Airport or City:

Trip Planner

Search our weather history database for the weather conditions in past years. The results will help you decide how hot, cold, wet, or windy it might be!

Date:

Astronomy

Jun. 05, 2013 Rise Set
Actual Time 5:33 AM CDT 8:01 PM CDT
Civil Twilight 5:03 AM CDT 8:31 PM CDT
Nautical Twilight 4:27 AM CDT 9:07 PM CDT
Astronomical Twilight 3:46 AM CDT 9:48 PM CDT
Moon 3:32 AM CDT (6/5) 5:31 PM CDT (6/5)
Length of Visible Light 15h 27m
Length of Day
14h 28m
Waning Crescent, 8% of the Moon is Illuminated
Jun 5
Waning Crescent
Jun 8
New
Jun 16
First Quarter
Jun 23
Full
Jun 29
Last Quarter

Hourly Weather History & Observations

Time (CDT) Temp. Heat Index Dew Point Humidity Pressure Visibility Wind Dir Wind Speed Gust Speed Precip Events Conditions
12:35 AM - - - N/A% 29.99 in 10.0 mi Calm Calm - N/A   Clear
12:55 AM - - - N/A% 29.99 in 10.0 mi SSW 3.5 mph - N/A   Clear
1:15 AM - - - N/A% 29.99 in 10.0 mi Calm Calm - N/A   Partly Cloudy
1:35 AM - - - N/A% 29.99 in 10.0 mi Calm Calm - N/A   Mostly Cloudy
1:55 AM - - - N/A% 29.98 in 10.0 mi Calm Calm - N/A   Overcast
2:15 AM - - - N/A% 29.98 in 10.0 mi Calm Calm - N/A   Overcast
2:35 AM - - - N/A% 29.97 in 10.0 mi Calm Calm - N/A   Mostly Cloudy
2:55 AM - - - N/A% 29.97 in 10.0 mi Calm Calm - N/A   Mostly Cloudy
3:15 AM - - - N/A% 29.97 in 10.0 mi Calm Calm - N/A   Partly Cloudy
3:35 AM - - - N/A% 29.96 in 8.0 mi Calm Calm - N/A   Clear
3:55 AM - - - N/A% 29.97 in 9.0 mi Calm Calm - N/A   Clear
4:15 AM - - - N/A% 29.97 in 10.0 mi Calm Calm - N/A   Clear
4:35 AM - - - N/A% 29.97 in 10.0 mi Calm Calm - N/A   Clear
4:55 AM - - - N/A% 29.96 in 10.0 mi Calm Calm - N/A   Clear
5:15 AM - - - N/A% 29.97 in 8.0 mi Calm Calm - N/A   Partly Cloudy
5:35 AM - - - N/A% 29.97 in 10.0 mi Calm Calm - N/A   Mostly Cloudy
5:55 AM - - - N/A% 29.97 in 10.0 mi Calm Calm - N/A   Scattered Clouds
6:15 AM - - - N/A% 29.96 in 7.0 mi Calm Calm - N/A   Partly Cloudy
6:35 AM - - - N/A% 29.96 in 9.0 mi Calm Calm - N/A   Scattered Clouds
6:55 AM - - - N/A% 29.97 in 3.0 mi Calm Calm - N/A   Overcast
7:15 AM - - - N/A% 30.00 in 1.0 mi Calm Calm - N/A   Overcast
7:35 AM - - - N/A% 29.98 in 3.0 mi Calm Calm - N/A   Mostly Cloudy
7:55 AM - - - N/A% 29.97 in 3.0 mi Calm Calm - N/A   Partly Cloudy
8:15 AM - - - N/A% 29.98 in 4.0 mi Calm Calm - N/A   Partly Cloudy
8:35 AM - - - N/A% 29.99 in 5.0 mi North 5.8 mph - N/A   Partly Cloudy
8:55 AM - - - N/A% 29.98 in - NW 3.5 mph - N/A   Unknown
9:15 AM - - - N/A% 29.98 in 10.0 mi North 3.5 mph - N/A   Unknown
9:35 AM - - - N/A% 29.99 in 10.0 mi Calm Calm - N/A   Unknown
9:55 AM - - - N/A% 29.99 in 10.0 mi North 3.5 mph - N/A   Partly Cloudy
10:15 AM - - - N/A% 30.00 in 0.8 mi Calm Calm - N/A   Overcast
10:35 AM - - - N/A% 30.00 in 7.0 mi ESE 3.5 mph - N/A   Mostly Cloudy
10:55 AM - - - N/A% 30.00 in 9.0 mi SE 4.6 mph - N/A   Mostly Cloudy
11:15 AM - - - N/A% 29.99 in 10.0 mi Calm Calm - N/A   Partly Cloudy
11:35 AM - - - N/A% 29.99 in 10.0 mi Calm Calm - N/A   Scattered Clouds
11:55 AM - - - N/A% 29.97 in 10.0 mi Variable 3.5 mph - N/A   Partly Cloudy
12:15 PM - - - N/A% 29.96 in 10.0 mi Calm Calm - N/A   Clear
12:35 PM 78.8 °F - 78.8 °F 100% 29.96 in 10.0 mi Calm Calm - N/A   Partly Cloudy
12:55 PM 78.8 °F - 78.8 °F 100% 29.96 in 10.0 mi WSW 5.8 mph - N/A   Partly Cloudy
1:15 PM 78.8 °F - 78.8 °F 100% 29.96 in 10.0 mi SSW 4.6 mph - N/A   Scattered Clouds
1:35 PM 78.8 °F - 78.8 °F 100% 29.95 in 10.0 mi ESE 4.6 mph - N/A   Mostly Cloudy
1:55 PM 78.8 °F - 78.8 °F 100% 29.93 in 10.0 mi South 3.5 mph - N/A   Mostly Cloudy
2:15 PM 78.8 °F - 78.8 °F 100% 29.91 in 10.0 mi SE 6.9 mph - N/A   Partly Cloudy
2:35 PM 78.8 °F - 78.8 °F 100% 29.89 in 10.0 mi ESE 5.8 mph - N/A   Clear
2:55 PM 80.6 °F 89.3 °F 80.6 °F 100% 29.89 in 10.0 mi Calm Calm - N/A   Clear
3:15 PM 78.8 °F - 78.8 °F 100% 29.89 in 10.0 mi SE 3.5 mph - N/A   Mostly Cloudy
3:35 PM 80.6 °F 89.3 °F 80.6 °F 100% 29.90 in 10.0 mi East 6.9 mph - N/A   Mostly Cloudy
3:55 PM 78.8 °F - 78.8 °F 100% 29.91 in 10.0 mi SSE 3.5 mph - N/A   Mostly Cloudy
4:15 PM 82.4 °F 90.9 °F 77.0 °F 84% 29.90 in 10.0 mi SSW 3.5 mph - N/A   Mostly Cloudy
4:35 PM 82.4 °F 90.9 °F 77.0 °F 84% 29.90 in 10.0 mi SE 3.5 mph - N/A   Partly Cloudy
4:55 PM 82.4 °F 90.9 °F 77.0 °F 84% 29.89 in 10.0 mi SSE 3.5 mph - N/A   Mostly Cloudy
5:15 PM 80.6 °F 87.1 °F 77.0 °F 89% 29.88 in 10.0 mi Calm Calm - N/A   Partly Cloudy
5:35 PM 80.6 °F 89.3 °F 80.6 °F 100% 29.88 in 10.0 mi SSE 6.9 mph - N/A   Clear
5:55 PM 78.8 °F - 78.8 °F 100% 29.88 in 10.0 mi South 5.8 mph - N/A   Clear
6:15 PM 78.8 °F - 78.8 °F 100% 29.87 in 10.0 mi SSE 8.1 mph - N/A   Clear
6:35 PM 78.8 °F - 78.8 °F 100% 29.86 in 10.0 mi SSE 5.8 mph - N/A   Partly Cloudy
6:55 PM 75.2 °F - 75.2 °F 100% 29.86 in 10.0 mi South 11.5 mph - N/A   Clear
7:15 PM 75.2 °F - 75.2 °F 100% 29.86 in 10.0 mi South 5.8 mph - N/A   Clear
7:35 PM 73.4 °F - 73.4 °F 100% 29.87 in 10.0 mi South 4.6 mph - N/A   Clear
7:55 PM 73.4 °F - 73.4 °F 100% 29.87 in 10.0 mi South 5.8 mph - N/A   Clear
8:15 PM - - - N/A% 29.87 in 10.0 mi SSE 6.9 mph - N/A   Clear
8:35 PM - - - N/A% 29.86 in 10.0 mi SSE 4.6 mph - N/A   Clear
8:55 PM - - - N/A% 29.87 in 10.0 mi SSE 3.5 mph - N/A   Clear
9:15 PM - - - N/A% 29.87 in 10.0 mi SSE 4.6 mph - N/A   Clear
9:35 PM - - - N/A% 29.87 in 10.0 mi Calm Calm - N/A   Clear
9:55 PM - - - N/A% 29.87 in 10.0 mi South 3.5 mph - N/A   Clear
10:15 PM - - - N/A% 29.87 in 10.0 mi Calm Calm - N/A   Clear
10:35 PM - - - N/A% 29.87 in 10.0 mi South 3.5 mph - N/A   Clear
10:55 PM - - - N/A% 29.87 in 10.0 mi Calm Calm - N/A   Clear
11:15 PM - - - N/A% 29.87 in 10.0 mi Calm Calm - N/A   Partly Cloudy
11:35 PM - - - N/A% 29.86 in 10.0 mi Calm Calm - N/A   Partly Cloudy
11:55 PM - - - N/A% 29.86 in 10.0 mi SSE 3.5 mph - N/A   Mostly Cloudy